AKDT,Max TemperatureF,Mean TemperatureF,Min TemperatureF,Max Dew PointF,MeanDew PointF,Min DewpointF,Max Humidity, Mean Humidity, Min Humidity, Max Sea Level PressureIn, Mean Sea Level PressureIn, Min Sea Level PressureIn, Max VisibilityMiles, Mean VisibilityMiles, Min VisibilityMiles, Max Wind SpeedMPH, Mean Wind SpeedMPH, Max Gust SpeedMPH,PrecipitationIn, CloudCover, Events, WindDirDegrees
2013-8-1,56,55,54,54,53,52,0,0,0,30.12,30.02,29.93,10,3,1,14,10,17,0.97,8,Rain,74
2013-8-2,55,55,54,54,53,52,0,0,0,29.94,29.79,29.49,6,2,0,20,10,25,0.14,8,Fog-Rain,82
2013-8-3,59,57,54,54,52,51,0,0,0,29.90,29.69,29.48,10,8,3,25,18,32,0.38,7,Rain,137
2013-8-4,62,58,54,54,52,51,0,0,0,29.96,29.93,29.90,10,10,9,13,4,15,0.14,7,Rain,131
2013-8-5,56,55,53,54,52,51,0,0,0,29.96,29.90,29.81,10,6,0,21,11,25,0.24,8,Fog-Rain,105
2013-8-6,55,54,53,54,52,50,0,0,0,29.78,29.66,29.62,6,3,1,29,21,39,1.69,8,Rain,91
2013-8-7,56,51,45,52,50,45,0,0,0,29.70,29.68,29.65,10,8,2,28,12,30,0.02,7,Rain,91
2013-8-8,55,48,40,52,47,39,0,0,0,29.73,29.70,29.59,10,6,2,23,11,29,0.17,6,Rain,119
2013-8-9,63,57,51,52,51,48,0,0,0,29.75,29.64,29.57,10,10,9,12,4,14,0.20,6,Rain,62
2013-8-10,65,59,52,51,50,48,0,0,0,29.97,29.86,29.76,10,10,10,15,5,17,0.00,6,,91
2013-8-11,57,55,53,52,50,48,0,0,0,29.99,29.98,29.94,10,10,10,10,7,12,0.02,8,Rain,43
2013-8-12,58,51,43,54,51,49,0,0,0,30.01,29.97,29.92,10,7,1,17,7,25,0.09,8,Rain,354
2013-8-13,61,55,49,52,51,47,0,0,0,30.02,30.00,29.98,10,9,1,16,7,21,0.00,7,,84
2013-8-14,66,55,44,53,48,42,0,0,0,30.03,29.97,29.92,10,10,10,14,5,16,0.00,6,,153
2013-8-15,63,57,50,52,50,47,0,0,0,29.92,29.83,29.76,10,10,10,9,4,12,T,6,Rain,10
2013-8-16,55,53,51,54,51,46,0,0,0,29.76,29.60,29.49,10,4,0,16,8,18,0.66,8,Fog-Rain,47
2013-8-17,58,56,53,54,51,48,0,0,0,29.49,29.46,29.42,10,6,0,15,7,20,0.72,8,Fog-Rain,38
2013-8-18,68,62,55,54,53,52,0,0,0,29.68,29.56,29.47,10,9,2,18,6,25,0.34,7,Rain,332
2013-8-19,59,55,50,54,51,48,0,0,0,29.78,29.74,29.69,10,6,0,15,3,18,T,7,Fog-Rain,79
2013-8-20,59,56,53,52,50,47,0,0,0,29.92,29.86,29.78,10,9,4,9,3,12,T,8,Rain,347
2013-8-21,60,57,54,54,52,51,0,0,0,29.91,29.86,29.79,10,10,6,5,1,7,0.22,8,Rain,118
2013-8-22,58,56,53,55,54,52,0,0,0,29.79,29.76,29.75,10,8,3,8,2,9,0.01,8,Rain,57
2013-8-23,66,59,52,54,50,47,0,0,0,29.76,29.70,29.62,10,8,0,14,4,18,0.00,7,Fog,289
2013-8-24,69,62,54,45,44,42,0,0,0,29.74,29.67,29.62,10,10,10,15,14,18,0.00,2,,308
2013-8-25,69,62,55,49,43,40,0,0,0,29.75,29.72,29.70,10,10,10,18,11,23,T,5,Rain,303
2013-8-26,57,55,52,50,48,47,0,0,0,29.76,29.74,29.73,10,10,10,15,4,17,0.00,8,,104
2013-8-27,67,61,55,50,48,45,0,0,0,29.84,29.81,29.76,10,10,10,16,7,20,0.00,7,,317
2013-8-28,56,53,50,50,48,46,0,0,0,29.81,29.64,29.39,10,8,4,18,7,23,0.75,7,Rain,50
2013-8-29,57,55,52,55,52,49,0,0,0,29.78,29.45,29.27,10,3,1,29,19,35,1.78,8,Rain,35
2013-8-30,66,59,52,54,53,50,0,0,0,30.01,29.93,29.78,10,10,5,17,7,22,0.05,7,Rain,329
2013-8-31,61,56,51,52,50,49,0,0,0,30.01,29.92,29.87,10,10,10,9,4,12,T,7,Rain,317